When you browse on this site, cookies collect data to enhance your experience and personalize the content and advertising you see.
Visit our Privacy Policy to learn more. By continuing to use the site, you agree to this use of cookies and data.
  • In Romania
  • List of Countries
  • For 7 days
  • Water Temperature
  • Weather Map
  • Weather Widgets
  • user-avatar
    Login

    Hourly Weather Abomey

    Today, 27 January, Monday

    Time Temperature Precipitation Wind Pressure Humidity
    00:00 +22°C° 0 mm 1 mps 739 mmHg 55%
    01:00 +22°C° 0 mm 1 mps 739 mmHg 57%
    02:00 +21°C° 0 mm 1 mps 738 mmHg 60%
    03:00 +19°C° 0 mm 0 mps 738 mmHg 63%
    04:00 +19°C° 0 mm 0 mps 738 mmHg 66%
    05:00 +18°C° 0 mm 0 mps 738 mmHg 68%
    06:00 +18°C° 0 mm 0 mps 739 mmHg 71%
    07:00 +22°C° 0 mm 0 mps 739 mmHg 59%
    08:00 +27°C° 0 mm 1 mps 740 mmHg 47%
    09:00 +30°C° 0 mm 1 mps 741 mmHg 35%
    10:00 +33°C° 0 mm 1 mps 741 mmHg 28%
    11:00 +36°C° 0 mm 1 mps 740 mmHg 20%
    12:00 +40°C° 0 mm 1 mps 740 mmHg 12%
    13:00 +40°C° 0 mm 1 mps 739 mmHg 11%
    14:00 +40°C° 0 mm 1 mps 738 mmHg 10%
    15:00 +41°C° 0 mm 1 mps 737 mmHg 9%
    16:00 +37°C° 0 mm 1 mps 737 mmHg 14%
    17:00 +35°C° 0 mm 2 mps 737 mmHg 18%
    18:00 +32°C° 0 mm 2 mps 737 mmHg 22%
    19:00 +30°C° 0 mm 2 mps 737 mmHg 38%
    20:00 +27°C° 0 mm 2 mps 738 mmHg 55%
    21:00 +25°C° 0 mm 2 mps 738 mmHg 71%
    22:00 +24°C° 0 mm 2 mps 739 mmHg 74%
    23:00 +24°C° 0 mm 2 mps 739 mmHg 77%

    Tomorrow, 28 January, Tuesday

    Time Temperature Precipitation Wind Pressure Humidity
    00:00 +23°C° 0 mm 2 mps 739 mmHg 80%
    01:00 +23°C° 0 mm 2 mps 739 mmHg 82%
    02:00 +23°C° 0 mm 1 mps 738 mmHg 84%
    03:00 +22°C° 0 mm 1 mps 738 mmHg 85%
    04:00 +22°C° 0 mm 1 mps 738 mmHg 87%
    05:00 +20°C° 0 mm 0 mps 739 mmHg 88%
    06:00 +19°C° 0 mm 0 mps 739 mmHg 90%
    07:00 +24°C° 0 mm 1 mps 740 mmHg 77%
    08:00 +27°C° 0 mm 1 mps 740 mmHg 64%
    09:00 +30°C° 0 mm 2 mps 741 mmHg 51%
    10:00 +34°C° 0 mm 2 mps 740 mmHg 41%
    11:00 +36°C° 0 mm 1 mps 740 mmHg 31%
    12:00 +40°C° 0 mm 1 mps 739 mmHg 21%
    13:00 +40°C° 0 mm 1 mps 739 mmHg 19%
    14:00 +41°C° 0 mm 1 mps 738 mmHg 17%
    15:00 +41°C° 0 mm 1 mps 737 mmHg 15%
    16:00 +38°C° 0 mm 2 mps 737 mmHg 24%
    17:00 +36°C° 0 mm 3 mps 737 mmHg 32%
    18:00 +33°C° 0 mm 4 mps 737 mmHg 41%
    19:00 +30°C° 0 mm 4 mps 737 mmHg 52%
    20:00 +28°C° 0 mm 3 mps 738 mmHg 62%
    21:00 +27°C° 0 mm 3 mps 739 mmHg 73%
    22:00 +26°C° 0 mm 3 mps 739 mmHg 77%
    23:00 +26°C° 0 mm 2 mps 739 mmHg 80%

    Day after tomorrow, 29 January, Wednesday

    Time Temperature Precipitation Wind Pressure Humidity
    00:00 +25°C° 0 mm 2 mps 739 mmHg 84%
    01:00 +25°C° 0 mm 1 mps 738 mmHg 86%
    02:00 +24°C° 0 mm 1 mps 738 mmHg 88%
    03:00 +22°C° 0 mm 0 mps 737 mmHg 90%
    04:00 +22°C° 0 mm 0 mps 738 mmHg 91%
    05:00 +21°C° 0 mm 0 mps 738 mmHg 92%
    06:00 +21°C° 0 mm 0 mps 739 mmHg 92%
    07:00 +24°C° 0 mm 0 mps 739 mmHg 80%
    08:00 +26°C° 0 mm 0 mps 740 mmHg 68%
    09:00 +31°C° 0 mm 1 mps 740 mmHg 56%
    10:00 +33°C° 0 mm 1 mps 740 mmHg 44%
    11:00 +36°C° 0 mm 1 mps 740 mmHg 33%
    12:00 +40°C° 0 mm 2 mps 739 mmHg 21%
    13:00 +40°C° 0 mm 2 mps 738 mmHg 19%
    14:00 +41°C° 0 mm 2 mps 737 mmHg 16%
    15:00 +41°C° 0 mm 2 mps 737 mmHg 14%
    16:00 +39°C° 0 mm 2 mps 737 mmHg 20%
    17:00 +36°C° 0 mm 2 mps 737 mmHg 26%
    18:00 +34°C° 0 mm 3 mps 737 mmHg 32%
    19:00 +31°C° 0 mm 2 mps 737 mmHg 48%
    20:00 +28°C° 0 mm 2 mps 738 mmHg 64%
    21:00 +26°C° 0 mm 2 mps 738 mmHg 80%
    22:00 +25°C° 0 mm 1 mps 738 mmHg 83%
    23:00 +25°C° 0 mm 1 mps 738 mmHg 86%

    30 January, Thursday

    Time Temperature Precipitation Wind Pressure Humidity
    00:00 +24°C° 0 mm 1 mps 738 mmHg 89%
    01:00 +24°C° 0 mm 1 mps 738 mmHg 90%
    02:00 +22°C° 0 mm 0 mps 738 mmHg 91%
    03:00 +21°C° 0 mm 0 mps 737 mmHg 92%
    04:00 +21°C° 0 mm 0 mps 738 mmHg 93%
    05:00 +21°C° 0 mm 0 mps 738 mmHg 93%
    06:00 +22°C° 0 mm 1 mps 738 mmHg 94%
    07:00 +26°C° 0 mm 1 mps 739 mmHg 79%
    08:00 +27°C° 0 mm 0 mps 740 mmHg 65%
    09:00 +30°C° 0 mm 0 mps 741 mmHg 50%
    10:00 +34°C° 0 mm 1 mps 740 mmHg 39%
    11:00 +36°C° 0 mm 1 mps 740 mmHg 28%
    12:00 +40°C° 0 mm 2 mps 739 mmHg 17%
    13:00 +40°C° 0 mm 2 mps 739 mmHg 14%
    14:00 +41°C° 0 mm 2 mps 738 mmHg 11%
    15:00 +42°C° 0 mm 2 mps 737 mmHg 8%
    16:00 +39°C° 0 mm 3 mps 737 mmHg 15%
    17:00 +36°C° 0 mm 3 mps 737 mmHg 23%
    18:00 +33°C° 0 mm 3 mps 737 mmHg 30%
    19:00 +30°C° 0 mm 3 mps 738 mmHg 48%
    20:00 +28°C° 0 mm 3 mps 738 mmHg 66%
    21:00 +26°C° 0 mm 2 mps 739 mmHg 83%
    22:00 +25°C° 0 mm 2 mps 739 mmHg 87%
    23:00 +25°C° 0 mm 2 mps 739 mmHg 90%

    31 January, Friday

    Time Temperature Precipitation Wind Pressure Humidity
    00:00 +24°C° 0 mm 2 mps 739 mmHg 93%
    01:00 +24°C° 0 mm 1 mps 739 mmHg 94%
    02:00 +24°C° 0 mm 1 mps 738 mmHg 95%
    03:00 +23°C° 0 mm 1 mps 738 mmHg 95%
    04:00 +23°C° 0 mm 1 mps 738 mmHg 96%
    05:00 +21°C° 0 mm 0 mps 739 mmHg 96%
    06:00 +21°C° 0 mm 0 mps 739 mmHg 96%
    07:00 +25°C° 0 mm 1 mps 740 mmHg 87%
    08:00 +27°C° 0 mm 1 mps 740 mmHg 78%
    09:00 +29°C° 0 mm 2 mps 741 mmHg 69%
    10:00 +31°C° 0 mm 2 mps 741 mmHg 57%
    11:00 +35°C° 0 mm 2 mps 740 mmHg 45%
    12:00 +37°C° 0 mm 2 mps 740 mmHg 32%
    13:00 +38°C° 0 mm 2 mps 739 mmHg 29%
    14:00 +39°C° 0 mm 2 mps 738 mmHg 26%
    15:00 +39°C° 0 mm 2 mps 738 mmHg 23%
    16:00 +37°C° 0 mm 3 mps 738 mmHg 29%
    17:00 +35°C° 0 mm 3 mps 738 mmHg 36%
    18:00 +33°C° 0 mm 3 mps 738 mmHg 42%
    19:00 +30°C° 0 mm 3 mps 738 mmHg 54%
    20:00 +28°C° 0 mm 3 mps 739 mmHg 65%
    21:00 +26°C° 0 mm 3 mps 739 mmHg 77%
    22:00 +26°C° 0 mm 2 mps 739 mmHg 81%
    23:00 +25°C° 0 mm 2 mps 739 mmHg 86%

    1 February, Saturday

    Time Temperature Precipitation Wind Pressure Humidity
    00:00 +25°C° 0 mm 2 mps 739 mmHg 90%
    01:00 +24°C° 0 mm 1 mps 739 mmHg 92%
    02:00 +24°C° 0 mm 1 mps 739 mmHg 94%
    03:00 +23°C° 0 mm 1 mps 738 mmHg 96%
    04:00 +23°C° 0 mm 1 mps 738 mmHg 96%
    05:00 +23°C° 0 mm 1 mps 739 mmHg 96%
    06:00 +23°C° 0 mm 1 mps 739 mmHg 96%
    07:00 +25°C° 0 mm 1 mps 740 mmHg 87%
    08:00 +27°C° 0 mm 2 mps 740 mmHg 77%
    09:00 +29°C° 0 mm 2 mps 741 mmHg 67%
    10:00 +32°C° 0 mm 2 mps 741 mmHg 55%
    11:00 +35°C° 0 mm 1 mps 740 mmHg 43%
    12:00 +39°C° 0 mm 1 mps 740 mmHg 30%
    13:00 +39°C° 0 mm 1 mps 739 mmHg 27%
    14:00 +40°C° 0 mm 1 mps 738 mmHg 24%
    15:00 +40°C° 0 mm 1 mps 737 mmHg 21%
    16:00 +38°C° 0 mm 2 mps 737 mmHg 26%
    17:00 +36°C° 0 mm 3 mps 737 mmHg 31%
    18:00 +34°C° 0 mm 3 mps 737 mmHg 36%
    19:00 +31°C° 0 mm 3 mps 738 mmHg 50%
    20:00 +29°C° 0 mm 3 mps 738 mmHg 64%
    21:00 +27°C° 0 mm 3 mps 738 mmHg 77%
    22:00 +26°C° 0 mm 2 mps 738 mmHg 81%
    23:00 +25°C° 0 mm 2 mps 738 mmHg 85%
    Show more